Location: Muck Cross
(36.7179°N, 78.3678°W)
Time: 16:51:54
(UTC+00:00)

Tiros 1 - Visible Passes

Search period start: 31 March 2023 00:00
Search period end: 10 April 2023 00:00
Orbit: 627 x 662 km, 48.4° (Epoch: 30 March)

Date Brightness Start Highest point End Pass type
(mag) Time Alt. Az. Time Alt. Az. Time Alt. Az.
31 Mar 9.8 07:38:31 16° ENE 07:38:31 16° ENE 07:39:34 10° ENE visible
31 Mar 8.3 09:16:07 29° NW 09:17:14 33° NNW 09:21:35 10° NE visible
01 Apr 9.1 08:02:28 28° NE 08:02:28 28° NE 08:04:48 10° NE visible
01 Apr 8.9 09:40:04 15° WNW 09:42:53 23° NNW 09:46:44 10° NE visible
02 Apr 8.6 08:26:22 32° N 08:26:22 32° N 08:29:52 10° NE visible
02 Apr 9.2 10:05:06 10° NW 10:08:39 20° N 10:12:12 10° NE visible
03 Apr 10.2 07:12:39 12° NE 07:12:39 12° NE 07:13:03 10° NE visible
03 Apr 8.8 08:50:15 23° NNW 08:51:03 24° NNW 08:54:59 10° NE visible
03 Apr 9.3 10:30:50 10° NW 10:34:27 21° N 10:38:04 10° NE visible
04 Apr 9.6 07:36:30 19° NNE 07:36:30 19° NNE 07:38:07 10° NE visible
04 Apr 9.2 09:14:06 13° NW 09:16:48 20° N 09:20:23 10° NE visible
05 Apr 9.2 08:00:21 23° N 08:00:21 23° N 08:03:12 10° NE visible
05 Apr 9.3 09:39:01 10° NW 09:42:37 20° N 09:46:11 10° NE visible
06 Apr 9.2 08:24:11 20° NNW 08:24:57 20° N 08:28:33 10° NE visible
06 Apr 9.1 10:04:22 10° NW 10:08:20 25° NNE 10:12:18 10° ENE visible
07 Apr 10.0 07:10:27 15° NNE 07:10:27 15° NNE 07:11:25 10° NE visible
07 Apr 9.4 08:48:02 13° NW 08:50:44 20° N 08:54:17 10° NE visible
08 Apr 9.6 07:34:18 19° NNE 07:34:18 19° NNE 07:36:42 10° NE visible
08 Apr 9.2 09:12:35 10° NW 09:16:29 24° NNE 09:20:22 10° ENE visible
09 Apr 9.3 07:58:12 19° N 07:58:52 20° N 08:02:23 10° NE visible
09 Apr 8.7 09:37:42 10° NW 09:42:05 34° NNE 09:46:27 10° E visible
